Flag for U.S.A. Weather past 2 weeks in Grand Junction, Colorado, U.S.A.

Now
47 °F

Overcast.


Feels Like: 45 °F
Forecast: 45 / 69 °F
Wind: 5 mph from East

Location: Walker Field

Current Time: May 25, 2015 at 4:22:47 AM

Latest Report: May 25, 2015 at 3:53 AM


Visibility: 10 mi

Pressure: 29.86 "Hg

Humidity: 97%

Dew point: 46 °F

Location of Grand JunctionLocation

Historic Weather in Grand Junction — Graph

°F

Grand Junction temperature yesterday

Maximum temperature yesterday: 62 °F (at 2:53 PM)
Minimum temperature yesterday: 44 °F (at 5:53 AM)
Average temperature yesterday: 52 °F

Past Weeks' High & Low Weather Summary

 TemperatureHumidityPressure
High77 °F (May 12, 3:53 PM)100% (May 10, 2:53 AM)30.15 "Hg (May 10, 2:53 AM)
Low36 °F (May 11, 5:53 AM)15% (May 12, 12:53 PM)29.62 "Hg (May 14, 11:53 PM)
Average55 °F60%29.85 "Hg
* Reported May 10 2:53 AM — May 25 2:53 AM, Grand Junction, Weather by CustomWeather, © 2015

Note: Actual official high and low records may vary slightly from our data, if they occured in-between our weather recording intervals... More about our weather records

Advertising

Grand Junction weather history for previous 24 hours

 ConditionsComfort  
Time TempWeatherWind HumidityBarometerVisibility
2:53 AM
Mon, May 25
46 °FLight rain. Overcast.5 mph100%29.84 "Hg9 mi
1:53 AM47 °FLight rain. Overcast.8 mph97%29.83 "Hg7 mi
1:01 AM47 °FRain. Fog.No wind97%29.96 "Hg2 mi
11:53 PM
Sun, May 24
49 °FRain. Fog.6 mph90%29.85 "Hg5 mi
10:53 PM50 °FMostly cloudy.5 mph83%29.84 "Hg10 mi
9:53 PM50 °FOvercast.No wind96%29.82 "Hg10 mi
8:53 PM52 °FLight rain. Mostly cloudy.5 mph83%29.81 "Hg10 mi
7:53 PM53 °FLight rain. More clouds than sun.10 mph74%29.81 "Hg10 mi
6:53 PM58 °FOvercast.5 mph47%29.77 "Hg10 mi
5:53 PM59 °FPartly sunny.8 mph48%29.77 "Hg10 mi
4:53 PM60 °FScattered clouds.16 mph46%29.78 "Hg10 mi
3:53 PM55 °FLight rain. Cloudy.16 mph69%29.80 "Hg8 mi
2:53 PM62 °FScattered clouds.7 mph43%29.78 "Hg10 mi
1:53 PM60 °FPartly sunny.7 mph49%29.81 "Hg10 mi
12:53 PM57 °FPartly sunny.6 mph55%29.84 "Hg10 mi
11:53 AM57 °FBroken clouds.5 mph58%29.85 "Hg10 mi
10:53 AM55 °FScattered clouds.6 mph59%29.86 "Hg10 mi
9:53 AM53 °FPartly sunny.3 mph66%29.86 "Hg10 mi
8:53 AM49 °FOvercast.3 mph80%29.88 "Hg10 mi
7:53 AM49 °FPartly sunny.7 mph77%29.87 "Hg10 mi
6:53 AM45 °FPassing clouds.3 mph93%29.88 "Hg10 mi
5:53 AM44 °FPassing clouds.5 mph93%29.89 "Hg10 mi
4:53 AM46 °FMostly cloudy.6 mph86%29.89 "Hg10 mi
Weather by CustomWeather, © 2015

See weather overviewHow to use our weather pages